Location: York
(31.8935°S, 116.7682°E)
Time: 19:17:30
(UTC+08:00)

deb Explorer IX - Pass Details

Date: 04 October 2022
Orbit: 533 x 1057 km, 38.8° (Epoch: 30 November)

Event Time Altitude Azimuth Distance (km) Brightness Sun altitude
Rises 00:25:02 0° 253° (WSW) 2,948 - -53.6°
Reaches altitude 10° 00:27:43 10° 264° (W) 1,958 - -53.4°
Maximum altitude 00:31:33 29° 324° (NW) 1,065 - -53.3°
Drops below altitude 10° 00:35:06 10° 24° (NNE) 1,801 - -53.1°
Sets 00:37:28 0° 36° (NE) 2,667 - -53.0°
